When you browse on this site, cookies collect data to enhance your experience and personalize the content and advertising you see.
Visit our Privacy Policy to learn more. By continuing to use the site, you agree to this use of cookies and data.
  • en France
  • Liste des pays
  • À 7 jours
  • Température de l'eau
  • Carte satellitaire
  • Carte météo
  • Widgets météo
  • user-avatar
    Se connecter

    Météo par heure à Canberra

    Ce jour, 23 Mai, Jeudi

    Heure Température Précipitation Vent Pression Humidité
    00:00 +11°C° 0 mm 1 m/s 717 mmHg 95%
    01:00 +11°C° 0 mm 1 m/s 717 mmHg 96%
    02:00 +11°C° 0 mm 1 m/s 717 mmHg 96%
    03:00 +11°C° 0 mm 1 m/s 717 mmHg 95%
    04:00 +12°C° 0 mm 1 m/s 717 mmHg 95%
    05:00 +11°C° 0 mm 1 m/s 717 mmHg 95%
    06:00 +11°C° 0 mm 1 m/s 717 mmHg 95%
    07:00 +10°C° 0 mm 0 m/s 717 mmHg 95%
    08:00 +11°C° 0 mm 0 m/s 717 mmHg 88%
    09:00 +13°C° 0 mm 0 m/s 717 mmHg 81%
    10:00 +15°C° 0 mm 0 m/s 718 mmHg 71%
    11:00 +18°C° 0 mm 1 m/s 717 mmHg 63%
    12:00 +19°C° 0 mm 1 m/s 717 mmHg 54%
    13:00 +20°C° 0 mm 1 m/s 717 mmHg 46%
    14:00 +20°C° 0 mm 1 m/s 716 mmHg 48%
    15:00 +19°C° 0 mm 1 m/s 716 mmHg 50%
    16:00 +19°C° 0 mm 1 m/s 715 mmHg 52%
    17:00 +16°C° 0 mm 1 m/s 715 mmHg 60%
    18:00 +13°C° 0 mm 1 m/s 715 mmHg 68%
    19:00 +11°C° 0 mm 1 m/s 715 mmHg 76%
    20:00 +10°C° 0 mm 1 m/s 715 mmHg 78%
    21:00 +10°C° 0 mm 1 m/s 715 mmHg 79%
    22:00 +9°C° 0 mm 1 m/s 715 mmHg 81%
    23:00 +9°C° 0 mm 1 m/s 715 mmHg 80%

    Demain, 24 Mai, Vendredi

    Heure Température Précipitation Vent Pression Humidité
    00:00 +8°C° 0 mm 1 m/s 715 mmHg 79%
    01:00 +8°C° 0 mm 1 m/s 714 mmHg 78%
    02:00 +7°C° 0 mm 1 m/s 714 mmHg 75%
    03:00 +7°C° 0 mm 1 m/s 714 mmHg 73%
    04:00 +7°C° 0 mm 1 m/s 713 mmHg 71%
    05:00 +7°C° 0 mm 1 m/s 713 mmHg 70%
    06:00 +6°C° 0 mm 1 m/s 713 mmHg 69%
    07:00 +6°C° 0 mm 1 m/s 713 mmHg 69%
    08:00 +9°C° 0 mm 1 m/s 713 mmHg 60%
    09:00 +12°C° 0 mm 1 m/s 714 mmHg 52%
    10:00 +15°C° 0 mm 2 m/s 714 mmHg 44%
    11:00 +16°C° 0 mm 2 m/s 713 mmHg 41%
    12:00 +18°C° 0 mm 3 m/s 713 mmHg 39%
    13:00 +19°C° 0 mm 3 m/s 713 mmHg 36%
    14:00 +19°C° 0 mm 3 m/s 712 mmHg 42%
    15:00 +18°C° 0 mm 3 m/s 712 mmHg 47%
    16:00 +17°C° 0 mm 3 m/s 712 mmHg 53%
    17:00 +16°C° 0 mm 2 m/s 712 mmHg 60%
    18:00 +14°C° 0 mm 2 m/s 712 mmHg 67%
    19:00 +12°C° 0 mm 1 m/s 712 mmHg 74%
    20:00 +12°C° 0 mm 1 m/s 712 mmHg 76%
    21:00 +11°C° 0 mm 1 m/s 712 mmHg 78%
    22:00 +11°C° 0 mm 1 m/s 712 mmHg 80%
    23:00 +10°C° 0 mm 1 m/s 711 mmHg 81%

    Après-demain, 25 Mai, Samedi

    Heure Température Précipitation Vent Pression Humidité
    00:00 +10°C° 0 mm 1 m/s 711 mmHg 82%
    01:00 +10°C° 0 mm 1 m/s 711 mmHg 83%
    02:00 +10°C° 0 mm 1 m/s 710 mmHg 83%
    03:00 +10°C° 0 mm 1 m/s 710 mmHg 84%
    04:00 +9°C° 0 mm 1 m/s 710 mmHg 85%
    05:00 +9°C° 0 mm 1 m/s 710 mmHg 86%
    06:00 +9°C° 0 mm 1 m/s 710 mmHg 87%
    07:00 +9°C° 0 mm 1 m/s 710 mmHg 88%
    08:00 +10°C° 0 mm 2 m/s 710 mmHg 77%
    09:00 +13°C° 0 mm 3 m/s 710 mmHg 66%
    10:00 +15°C° 0 mm 4 m/s 710 mmHg 55%
    11:00 +17°C° 0 mm 5 m/s 710 mmHg 51%
    12:00 +19°C° 0 mm 6 m/s 709 mmHg 47%
    13:00 +20°C° 0 mm 6 m/s 709 mmHg 43%
    14:00 +19°C° 0 mm 6 m/s 709 mmHg 46%
    15:00 +19°C° 0 mm 5 m/s 708 mmHg 49%
    16:00 +18°C° 0 mm 4 m/s 708 mmHg 52%
    17:00 +17°C° 0 mm 3 m/s 708 mmHg 57%
    18:00 +14°C° 0 mm 3 m/s 708 mmHg 62%
    19:00 +13°C° 0 mm 2 m/s 708 mmHg 67%
    20:00 +13°C° 0 mm 2 m/s 708 mmHg 68%
    21:00 +13°C° 0 mm 2 m/s 708 mmHg 68%
    22:00 +13°C° 0 mm 2 m/s 708 mmHg 69%
    23:00 +12°C° 0.2 mm 2 m/s 707 mmHg 74%

    26 Mai, Dimanche

    Heure Température Précipitation Vent Pression Humidité
    00:00 +11°C° 0.2 mm 3 m/s 707 mmHg 79%
    01:00 +11°C° 0.2 mm 3 m/s 707 mmHg 84%
    02:00 +10°C° 0.1 mm 4 m/s 707 mmHg 87%
    03:00 +10°C° 0.1 mm 4 m/s 706 mmHg 89%
    04:00 +10°C° 0.1 mm 4 m/s 706 mmHg 92%
    05:00 +8°C° 0 mm 4 m/s 707 mmHg 90%
    06:00 +8°C° 0 mm 4 m/s 707 mmHg 88%
    07:00 +8°C° 0 mm 4 m/s 708 mmHg 87%
    08:00 +8°C° 0 mm 4 m/s 708 mmHg 77%
    09:00 +9°C° 0 mm 5 m/s 708 mmHg 68%
    10:00 +10°C° 0 mm 6 m/s 708 mmHg 58%
    11:00 +11°C° 0 mm 6 m/s 708 mmHg 54%
    12:00 +11°C° 0 mm 6 m/s 708 mmHg 50%
    13:00 +13°C° 0 mm 6 m/s 707 mmHg 46%
    14:00 +11°C° 0 mm 6 m/s 707 mmHg 50%
    15:00 +10°C° 0 mm 6 m/s 706 mmHg 53%
    16:00 +10°C° 0 mm 5 m/s 706 mmHg 57%
    17:00 +9°C° 0 mm 5 m/s 706 mmHg 62%
    18:00 +7°C° 0 mm 5 m/s 706 mmHg 67%
    19:00 +6°C° 0 mm 5 m/s 706 mmHg 72%
    20:00 +5°C° 0 mm 6 m/s 706 mmHg 71%
    21:00 +7°C° 0 mm 6 m/s 706 mmHg 70%
    22:00 +6°C° 0 mm 7 m/s 706 mmHg 69%
    23:00 +7°C° 0 mm 6 m/s 706 mmHg 69%

    27 Mai, Lundi

    Heure Température Précipitation Vent Pression Humidité
    00:00 +7°C° 0 mm 6 m/s 705 mmHg 68%
    01:00 +7°C° 0 mm 6 m/s 705 mmHg 68%
    02:00 +7°C° 0 mm 6 m/s 704 mmHg 69%
    03:00 +7°C° 0 mm 6 m/s 704 mmHg 71%
    04:00 +6°C° 0 mm 7 m/s 704 mmHg 72%
    05:00 +6°C° 0 mm 7 m/s 704 mmHg 73%
    06:00 +6°C° 0 mm 7 m/s 705 mmHg 74%
    07:00 +6°C° 0 mm 7 m/s 705 mmHg 75%
    08:00 +6°C° 0 mm 7 m/s 705 mmHg 67%
    09:00 +6°C° 0 mm 8 m/s 705 mmHg 59%
    10:00 +6°C° 0 mm 9 m/s 705 mmHg 52%
    11:00 +6°C° 0.1 mm 8 m/s 705 mmHg 54%
    12:00 +6°C° 0.1 mm 8 m/s 705 mmHg 56%
    13:00 +6°C° 0.1 mm 8 m/s 705 mmHg 58%
    14:00 +6°C° 0 mm 8 m/s 705 mmHg 57%
    15:00 +5°C° 0 mm 7 m/s 705 mmHg 55%
    16:00 +5°C° 0 mm 7 m/s 706 mmHg 53%
    17:00 +4°C° 0 mm 6 m/s 706 mmHg 58%
    18:00 +3°C° 0 mm 5 m/s 707 mmHg 62%
    19:00 +3°C° 0 mm 4 m/s 708 mmHg 66%
    20:00 +3°C° 0 mm 4 m/s 708 mmHg 68%
    21:00 +3°C° 0 mm 4 m/s 708 mmHg 69%
    22:00 +1°C° 0 mm 4 m/s 708 mmHg 71%
    23:00 +1°C° 0 mm 4 m/s 708 mmHg 71%

    28 Mai, Mardi

    Heure Température Précipitation Vent Pression Humidité
    00:00 +1°C° 0 mm 4 m/s 708 mmHg 72%
    01:00 +1°C° 0 mm 4 m/s 708 mmHg 73%
    02:00 +1°C° 0 mm 4 m/s 708 mmHg 74%
    03:00 +1°C° 0 mm 4 m/s 708 mmHg 76%
    04:00 +1°C° 0 mm 4 m/s 708 mmHg 77%
    05:00 +1°C° 0 mm 4 m/s 708 mmHg 78%
    06:00 +1°C° 0 mm 4 m/s 708 mmHg 79%
    07:00 +2°C° 0 mm 3 m/s 708 mmHg 80%
    08:00 +4°C° 0 mm 4 m/s 708 mmHg 73%
    09:00 +6°C° 0 mm 5 m/s 708 mmHg 66%
    10:00 +7°C° 0 mm 6 m/s 708 mmHg 59%
    11:00 +8°C° 0 mm 6 m/s 708 mmHg 60%
    12:00 +8°C° 0 mm 7 m/s 707 mmHg 60%
    13:00 +9°C° 0 mm 7 m/s 706 mmHg 60%
    14:00 +8°C° 0 mm 7 m/s 706 mmHg 64%
    15:00 +8°C° 0 mm 6 m/s 706 mmHg 68%
    16:00 +8°C° 0 mm 6 m/s 706 mmHg 72%
    17:00 +7°C° 0 mm 6 m/s 706 mmHg 75%
    18:00 +7°C° 0 mm 6 m/s 706 mmHg 78%
    19:00 +7°C° 0 mm 6 m/s 706 mmHg 80%
    20:00 +7°C° 0 mm 6 m/s 705 mmHg 80%
    21:00 +8°C° 0 mm 7 m/s 705 mmHg 79%
    22:00 +8°C° 0 mm 7 m/s 705 mmHg 78%
    23:00 +7°C° 0 mm 8 m/s 704 mmHg 77%
    Voir plus